Location: Unspecified
(43.4680°N, 87.1740°E)
Time: 11:05:15
(UTC+00:00)

Meteor 2-21 - Pass Details

Date: 17 April 2021
Orbit: 933 x 967 km, 82.5° (Epoch: 14 May)

Event Time Altitude Azimuth Distance (km) Brightness Sun altitude
Rises 15:24:41 0° 350° (N) 3,600 8.3 -24.0°
Reaches altitude 10° 15:27:10 10° 350° (N) 2,652 7.5 -24.3°
Maximum altitude 15:33:13 82° 264° (W) 950 4.4 -25.0°
Enters shadow 15:34:53 51° 184° (S) 1,170 4.6 -25.2°
